Location: Saluda
(35.2377°N, 82.3468°W)
Time: 18:08:08
(UTC+00:00)

Transit 2A - Pass Details

Date: 10 October 2022
Orbit: 598 x 959 km, 66.7° (Epoch: 06 December)

Event Time Altitude Azimuth Distance (km) Brightness Sun altitude
Rises 12:03:04 0° 330° (NNW) 3,036 8.7 5.5°
Reaches altitude 10° 12:05:17 10° 328° (NNW) 2,166 8.0 6.0°
Maximum altitude 12:10:11 69° 246° (WSW) 806 6.1 6.9°
Drops below altitude 10° 12:15:37 10° 163° (SSE) 2,393 9.1 8.0°
Sets 12:18:11 0° 161° (SSE) 3,380 9.8 8.5°
